Tracking 29892 objects as of 21-Nov-2024
HD Live streaming from Space Station
objects crossing your sky now

STARLINK-4569

Track STARLINK-4569 now!
10-day predictions


NORAD ID: 53687
Int'l Code: 2022-105AR
Perigee: 568.8 km
Apogee: 571.4 km
Inclination: 97.7 °
Period: 95.9 minutes
Semi major axis: 6941 km
RCS: Unknown
Launch date: August 31, 2022
Source: United States (US)
Launch site: AIR FORCE WESTERN TEST RANGE (AFWTR)
Your satellite tracking list
Your tracking list is empty




NASA's NSSDC Master Catalog

Two Line Element Set (TLE):
1 53687U 22105AR  24325.49296152  .00000873  00000-0  72513-4 0  9993
2 53687  97.6585 204.0908 0001854  83.2348 276.9087 15.01269160122094
Source of the keplerian elements: AFSPC